#timestamp,LO_Frequency,Hit,StdDev 
1663999215.1,286047000.1,N
1663999235.9,286047000.1,N
1663999255.7,286047002.1,N
1663999275.5,286046998.3,N
1663999295.4,286046997.1,N
1663999315.2,286046997.6,N
1663999335.0,286046997.7,N
1663999335.9,286046997.7,N
1663999355.8,286046995.3,N
1663999375.6,286046995.7,N
1663999395.5,286046996.8,N
1663999415.3,286046995.3,N
1663999435.1,286046995.7,N
1663999455.9,286046997.0,N
1663999475.7,286046998.9,N
1663999495.5,286046996.6,N
1663999515.4,286046998.6,N
1663999535.2,286046999.9,N
1663999555.1,286047002.3,N
1663999556.0,286047002.3,N
1663999575.8,286047001.9,N
1663999595.7,286047001.6,N
1663999615.5,286047002.4,N
1663999635.3,286047000.3,N
1663999655.2,286047000.9,N
1663999675.1,286047000.6,N
1663999676.0,286047000.6,N
1663999695.8,286047000.9,N
1663999715.6,286047000.0,N
1663999735.5,286046998.9,N
1663999755.3,286047000.9,N
1663999775.2,286046997.3,N
1663999795.9,286046997.0,N
1663999815.7,286047000.7,N
1663999835.6,286047000.3,N
1663999855.4,286047001.3,N
1663999875.2,286047004.2,N
1663999895.1,286047006.0,N
1663999896.0,286047006.0,N
1663999915.8,286047006.0,N
1663999935.7,286047004.8,N
1663999955.5,286047005.4,N
1663999975.3,286047005.7,N
1663999995.2,286047005.5,N
1664000015.0,286047003.4,N
1664000015.9,286047003.4,N
1664000035.7,286047003.7,N
1664000055.6,286047003.2,N
1664000075.4,286047003.0,N
1664000095.3,286047005.8,N
1664000115.1,286047007.5,N
1664000116.0,286047007.5,N
1664000135.8,286047007.4,N
1664000155.7,286047006.8,N
1664000175.5,286047006.8,N
1664000195.3,286047008.8,N
1664000215.2,286047008.3,N
1664000235.0,286047006.2,N
1664000235.9,286047006.2,N
1664000255.8,286047006.3,N
1664000275.6,286047007.4,N
1664000295.4,286047004.8,N
1664000315.3,286047004.9,N
1664000335.1,286047005.0,N
1664000355.9,286047004.6,N
1664000375.7,286047007.6,Y
1664000395.5,286047001.0,P
1664000415.4,286047002.6,N
1664000435.2,286046999.7,N
1664000455.1,286047000.7,N
1664000456.0,286047000.7,N
1664000475.8,286046998.8,N
1664000495.6,286046998.7,N
1664000515.5,286047000.8,N
1664000535.3,286046999.5,N
1664000555.2,286046997.2,N
1664000575.9,286046997.1,N
1664000595.7,286046997.7,N
1664000615.6,286046997.6,N
1664000635.4,286046997.9,N
1664000655.2,286046997.2,N
1664000675.1,286046997.9,N
1664000676.0,286046997.9,N
1664000695.8,286046995.3,N
1664000715.7,286046995.1,N
1664000735.5,286046994.9,N
1664000755.3,286046995.3,N
1664000775.2,286046995.9,N
1664000795.0,286046995.6,N
1664000795.9,286046995.6,N
1664000815.7,286046995.9,N
1664000835.6,286046993.4,N
1664000855.4,286046993.8,N
1664000875.3,286046994.6,N
1664000895.1,286046992.1,N
1664000915.8,286046992.8,N
1664000935.7,286046990.3,Y
1664000955.5,286046996.3,P
1664000975.4,286046996.0,P
1664000995.2,286046995.6,P
1664001015.0,286046996.4,Y
1664001015.9,286046996.4,P
1664001035.8,286047000.7,P
1664001055.6,286047001.0,N
1664001075.5,286046998.2,N
1664001095.3,286046998.4,N
1664001115.1,286047000.8,N
1664001135.9,286047011.9,Y
1664001155.7,286047002.3,P
1664001175.6,286047001.9,N
1664001195.4,286047002.0,N
1664001215.2,286047001.4,N
1664001235.1,286047001.4,N
1664001236.0,286047001.4,N
1664001255.8,286047000.0,N
1664001275.6,286047001.1,N
1664001295.5,286046998.6,N
1664001315.3,286046998.9,N
1664001335.2,286046998.7,N
1664001355.9,286046999.5,N
1664001375.7,286046997.1,N
1664001395.6,286046994.9,Y
1664001415.4,286046996.1,P
1664001435.2,286046995.2,N
1664001455.1,286046996.1,N
1664001456.0,286046996.1,N
1664001475.8,286046995.9,N
1664001495.6,286046996.4,N
1664001515.4,286046996.1,N
1664001535.2,286046997.3,N
1664001555.1,286046997.2,N
1664001556.0,286046997.2,N
1664001575.8,286046997.8,N
1664001595.7,286046997.1,N
1664001615.5,286046996.5,N
1664001635.3,286046998.8,N
1664001655.2,286046999.5,N
1664001675.0,286046999.3,N
1664001675.9,286046999.3,N
1664001695.8,286046999.1,N
1664001715.6,286046998.4,N
1664001735.4,286046999.4,N
1664001755.3,286046996.6,N
1664001775.1,286046999.5,N
1664001795.8,286046996.6,N
1664001815.7,286046996.9,N
1664001835.5,286046997.4,N
1664001855.4,286046996.7,N
1664001875.7,286046994.9,Y
1664001895.6,286046999.0,P
1664001915.4,286046998.8,N
1664001935.2,286047000.7,N
1664001955.1,286047011.9,Y
1664001956.0,286047000.8,P
1664001975.8,286047000.0,N
1664001995.7,286047000.4,N
1664002015.5,286047000.8,N
1664002035.3,286046998.2,N
1664002055.2,286046998.4,N
1664002075.0,286046998.7,N
1664002075.9,286046998.7,N
1664002095.8,286047000.8,N
1664002115.6,286046998.3,N
1664002135.4,286046998.4,N
1664002155.3,286046998.1,N
1664002175.1,286046999.7,N
1664002195.9,286047000.5,N
1664002215.7,286047000.7,N
1664002235.5,286047001.2,N
1664002255.4,286046998.7,N
1664002275.2,286046998.6,N
1664002295.0,286047001.1,N
1664002295.9,286047001.1,N
1664002315.8,286047000.0,N
1664002335.6,286047001.0,N
1664002355.5,286047000.8,N
1664002375.3,286047000.4,N
1664002395.1,286047001.2,N
1664002415.9,286046998.1,N
1664002435.7,286047000.1,N
1664002455.5,286047000.3,N
1664002475.4,286047001.0,N
1664002495.2,286046998.3,N
1664002515.1,286046998.1,N
1664002516.0,286046998.1,N
1664002535.8,286046998.5,N
1664002555.6,286047001.2,N
1664002575.5,286046998.5,N
1664002595.3,286047000.3,N
1664002615.1,286047001.0,N
1664002635.9,286047000.8,N
1664002655.7,286046998.2,N
1664002675.6,286046998.6,N
1664002695.4,286046999.1,N
1664002715.2,286046998.8,N
1664002735.1,286046998.7,N
1664002736.0,286046998.7,N
1664002755.8,286047001.1,N
1664002775.7,286047001.1,N
1664002795.5,286046998.1,N
